Hourly Data Report for October 18, 2016

All times are specified in Local Standard Time (LST). Add 1 hour to adjust for Daylight Saving Time where and when it is observed.

HALL BEACH A
NUNAVUT

68°46'33.000" N
81°14'33.000" W
9.10 m
2402354
71293
YUX

Download Data

Hourly Data (October 2016)
Hourly Data Report for October 18, 2016
Temp Definition
°C
Dew Point Temp Definition
°C
Rel Hum Definition
%
Wind Dir Definition
10's deg

Wind Spd Definition
km/h
Visibility Definition
km
Stn Press Definition
kPa
Hmdx Definition


Wind Chill Definition


Weather Definition


TIME
00:00 Legend Double Dagger -11.4 -13.4 85 29 28 16.1 102.14   -21 LegendNANA
01:00 Legend Double Dagger -12.4 -14.1 87 30 26 16.1 102.18   -22 LegendNANA
02:00 Legend Double Dagger -14.3 -16.0 87 31 18 16.1 102.21   -23 LegendNANA
03:00 Legend Double Dagger -14.5 -16.1 88 31 21 16.1 102.25   -24 LegendNANA
04:00 Legend Double Dagger -15.2 -16.9 87 29 18 16.1 102.28   -24 LegendNANA
05:00 Legend Double Dagger -16.0 -17.6 88 29 15 16.1 102.31   -24 LegendNANA
06:00 Legend Double Dagger -15.1 -16.8 87 30 17 16.1 102.34   -24 LegendNANA
07:00 Legend Double Dagger -15.8 -17.4 88 29 15 16.1 102.36   -24 LegendNANA
08:00 Legend Double Dagger -16.8 -18.5 87 26 15 16.1 102.38   -25 LegendNANA
09:00 Legend Double Dagger -15.5 -17.1 88 27 21 16.1 102.38   -25 LegendNANA
10:00 Legend Double Dagger -14.9 -16.6 87 27 21 16.1 102.37   -24 LegendNANA
11:00 Legend Double Dagger -14.8 -16.7 86 28 15 16.1 102.35   -23 LegendNANA
12:00 Legend Double Dagger -13.1 -15.1 85 29 17 16.1 102.33   -21 LegendNANA
13:00 Legend Double Dagger -12.5 -14.4 86 29 17 16.1 102.33   -20 LegendNANA
14:00 Legend Double Dagger -11.2 -13.4 84 29 17 16.1 102.32   -19 LegendNANA
15:00 Legend Double Dagger -11.0 -13.3 83 30 26 16.1 102.31   -20 LegendNANA
16:00 Legend Double Dagger -11.7 -14.2 82 29 22 16.1 102.32   -20 LegendNANA
17:00 Legend Double Dagger -8.7 -11.1 83 29 26 16.1 102.33   -17 LegendNANA
18:00 Legend Double Dagger -9.1 -11.3 84 28 26 16.1 102.33   -18 LegendNANA
19:00 Legend Double Dagger -9.0 -11.5 82 28 28 16.1 102.30   -18 LegendNANA
20:00 Legend Double Dagger -9.0 -11.5 82 28 26 16.1 102.29   -18 LegendNANA
21:00 Legend Double Dagger -9.1 -11.6 82 28 26 16.1 102.26   -18 LegendNANA
22:00 Legend Double Dagger -9.1 -11.5 83 28 24 16.1 102.23   -17 LegendNANA
23:00 Legend Double Dagger -9.0 -11.4 83 28 22 16.1 102.20   -17 LegendNANA

Notes on Data Quality.

Legend

  • E = Estimated
  • M = Missing
  • NA = Not Available
  • ‡ = Partner data that is not subject to review by the National Climate Archives
Date modified: